User: anonymous   Login
Location: Caltech
(34.1382°N, 118.1253°W)
Time: 08:21:29
(UTC-08:00)
Language:

Sapphire - Orbit

View from above orbital plane
View from above orbital plane
View from above satellite
View from above satellite

Ground track
Ground track

The orbit data is extracted from the following two-line orbital elements,

1 26932U 01043D   14351.25979244  .00000220  00000-0  11718-3 0  7832
2 26932 067.0577 287.4823 0008770 278.1484 081.8622 14.30078880689825
Epoch (UTC): 17 December 2014 06:14:06
Eccentricity: 0.0008770
inclination: 67.0577°
perigee height: 785 km
apogee height: 798 km
right ascension of ascending node: 287.4823°
argument of perigee: 278.1484°
revolutions per day: 14.30078880
mean anomaly at epoch: 81.8622°
orbit number at epoch: 68982

The dashed part of the orbit path shows where the satellite is in the earth's shadow,  

DLR